Time,TemperatureF,DewpointF,PressureIn,WindDirection,WindDirectionDegrees,WindSpeedMPH,WindSpeedGustMPH,Humidity,HourlyPrecipIn,Conditions,Clouds,dailyrainin,SoftwareType,DateUTC
2013-08-13 13:00:00,88.0,50.0,-100.00,SSE,147,6.0,-999.0,27,0.00,,,-99.99,,2013-08-13 20:00:00,
2013-08-13 13:45:00,88.0,50.0,-100.00,SSE,147,6.0,-999.0,27,0.00,,,-99.99,,2013-08-13 20:45:00,
2013-08-13 13:53:00,88.0,50.0,-100.00,SSE,147,6.0,-999.0,27,0.00,,,-99.99,,2013-08-13 20:53:00,
2013-08-13 14:00:00,91.0,47.0,-100.00,West,263,9.0,-999.0,22,0.00,,,-99.99,,2013-08-13 21:00:00,
2013-08-13 14:46:00,91.0,47.0,-100.00,West,263,9.0,-999.0,22,0.00,,,-99.99,,2013-08-13 21:46:00,
2013-08-13 14:54:00,91.0,47.0,-100.00,West,263,9.0,-999.0,22,0.00,,,-99.99,,2013-08-13 21:54:00,
2013-08-13 15:00:00,92.0,47.0,-100.00,WSW,251,8.0,-999.0,21,0.00,,,-99.99,,2013-08-13 22:00:00,
2013-08-13 15:50:00,92.0,47.0,-100.00,WSW,251,8.0,-999.0,21,0.00,,,-99.99,,2013-08-13 22:50:00,
2013-08-13 15:56:00,92.0,47.0,-100.00,WSW,251,8.0,-999.0,21,0.00,,,-99.99,,2013-08-13 22:56:00,
2013-08-13 16:00:00,94.0,49.0,-100.00,WNW,291,10.0,-999.0,21,0.00,,,-99.99,,2013-08-13 23:00:00,
2013-08-13 16:47:00,94.0,49.0,-100.00,WNW,291,10.0,-999.0,21,0.00,,,-99.99,,2013-08-13 23:47:00,
2013-08-13 16:57:00,94.0,49.0,-100.00,WNW,291,10.0,-999.0,21,0.00,,,-99.99,,2013-08-13 23:57:00,
2013-08-13 17:00:00,95.0,50.0,-100.00,West,262,9.0,-999.0,21,0.00,,,-99.99,,2013-08-14 00:00:00,
2013-08-13 17:42:00,95.0,50.0,-100.00,West,262,9.0,-999.0,21,0.00,,,-99.99,,2013-08-14 00:42:00,
2013-08-13 17:52:00,95.0,50.0,-100.00,West,262,9.0,-999.0,21,0.00,,,-99.99,,2013-08-14 00:52:00,
2013-08-13 18:00:00,96.0,48.0,-100.00,NW,308,9.0,-999.0,19,0.00,,,-99.99,,2013-08-14 01:00:00,
2013-08-13 18:42:00,96.0,48.0,-100.00,NW,308,9.0,-999.0,19,0.00,,,-99.99,,2013-08-14 01:42:00,
2013-08-13 18:52:00,96.0,48.0,-100.00,NW,308,9.0,-999.0,19,0.00,,,-99.99,,2013-08-14 01:52:00,
2013-08-13 19:00:00,95.0,48.0,-100.00,WNW,300,9.0,-999.0,20,0.00,,,-99.99,,2013-08-14 02:00:00,
2013-08-13 19:42:00,95.0,48.0,-100.00,WNW,300,9.0,-999.0,20,0.00,,,-99.99,,2013-08-14 02:42:00,
2013-08-13 19:52:00,95.0,48.0,-100.00,WNW,300,9.0,-999.0,20,0.00,,,-99.99,,2013-08-14 02:52:00,
2013-08-13 20:00:00,92.0,54.0,-100.00,WNW,282,3.0,-999.0,28,0.00,,,-99.99,,2013-08-14 03:00:00,
2013-08-13 20:43:00,92.0,54.0,-100.00,WNW,282,3.0,-999.0,28,0.00,,,-99.99,,2013-08-14 03:43:00,
2013-08-13 20:53:00,92.0,54.0,-100.00,WNW,282,3.0,-999.0,28,0.00,,,-99.99,,2013-08-14 03:53:00,
2013-08-13 21:00:00,84.0,56.0,-100.00,SSE,167,2.0,-999.0,38,0.00,,,-99.99,,2013-08-14 04:00:00,
2013-08-13 21:42:00,84.0,56.0,-100.00,SSE,167,2.0,-999.0,38,0.00,,,-99.99,,2013-08-14 04:42:00,
2013-08-13 21:52:00,84.0,56.0,-100.00,SSE,167,2.0,-999.0,38,0.00,,,-99.99,,2013-08-14 04:52:00,
2013-08-13 22:00:00,79.0,-99.9,-100.00,SE,141,4.0,-999.0,45,0.00,,,-99.99,,2013-08-14 05:00:00,
2013-08-13 22:42:00,79.0,-99.9,-100.00,SE,141,4.0,-999.0,45,0.00,,,-99.99,,2013-08-14 05:42:00,
2013-08-13 22:52:00,79.0,-99.9,-100.00,SE,141,4.0,-999.0,45,0.00,,,-99.99,,2013-08-14 05:52:00,
2013-08-13 23:00:00,76.0,-99.9,-100.00,SE,141,4.0,-999.0,48,0.00,,,-99.99,,2013-08-14 06:00:00,
2013-08-13 23:42:00,76.0,-99.9,-100.00,SE,141,4.0,-999.0,48,0.00,,,-99.99,,2013-08-14 06:42:00,
2013-08-13 23:52:00,76.0,-99.9,-100.00,SE,141,4.0,-999.0,48,0.00,,,-99.99,,2013-08-14 06:52:00,